Home > Weather > Pokhara > Past weeks

Flag for Nepal Past Weather in Pokhara, Nepal — Yesterday and Last 2 Weeks

Now
73 °F

Partly cloudy.


Feels Like: 72 °F
Forecast: 67 / 89 °F
Wind: 3 mph from North

Location: Kathmandu Airport

Current Time: Aug 27, 2016 at 1:47:16 AM

Latest Report: Aug 27, 2016 at 12:35 AM


Visibility: 5 mi

Pressure: 30.04 "Hg (27.24 "Hg at 847m altitude)

Humidity: 89%

Dew Point: 70 °F

Location of PokharaLocation

Past Weather in Pokhara — Graph

°F

Pokhara Temperature Yesterday

Maximum temperature yesterday: 84 °F (at 5:35 PM)
Minimum temperature yesterday: 68 °F (at 2:35 AM)
Average temperature yesterday: 75 °F

High & Low Weather Summary for the Past Weeks

 TemperatureHumidityPressure
High88 °F (Aug 25, 1:05 PM)100% (Aug 12, 7:05 PM)30.07 "Hg (Aug 12, 7:05 PM)
Low68 °F (Aug 17, 4:35 AM)52% (Aug 25, 1:35 PM)29.62 "Hg (Aug 16, 3:05 PM)
Average76 °F82%29.85 "Hg
* Reported Aug 12 12:05 AM — Aug 27 12:35 AM, Pokhara, Weather by CustomWeather, © 2016

Note: Actual official high and low records may vary slightly from our data, if they occured in-between our weather recording intervals... More about our weather records

Advertising

Pokhara Weather History for the Previous 24 Hours

Scroll right to see more
 ConditionsComfort  
Time TempWeatherWind HumidityBarometerVisibility
12:35 AM
Sat, Aug 27
73 °FPartly cloudy.3 mph89%30.04 "Hg5 mi
12:05 AM73 °FPartly cloudy.No wind94%30.04 "Hg5 mi
11:35 PM
Fri, Aug 26
73 °FPartly cloudy.2 mph94%30.04 "Hg5 mi
11:05 PM75 °FPartly cloudy.2 mph83%30.04 "Hg5 mi
8:35 PM73 °FPassing clouds.5 mph89%30.01 "Hg5 mi
7:35 PM77 °FPassing clouds.5 mph79%29.98 "Hg5 mi
7:05 PM77 °FPartly sunny.5 mph79%29.95 "HgN/A
6:35 PM79 °FPartly sunny.5 mph74%29.95 "HgN/A
6:05 PM79 °FPartly sunny.6 mph74%29.95 "HgN/A
5:35 PM84 °FPartly sunny.No wind62%29.95 "HgN/A
5:05 PM82 °FScattered clouds.3 mph58%29.95 "HgN/A
4:35 PM82 °FScattered clouds.2 mph62%29.95 "HgN/A
4:05 PM82 °FScattered clouds.2 mph66%29.95 "HgN/A
3:35 PM82 °FPassing clouds.5 mph62%29.95 "HgN/A
3:05 PM82 °FPassing clouds.2 mph62%29.95 "HgN/A
2:35 PM81 °FPassing clouds.3 mph66%29.98 "HgN/A
2:05 PM81 °FScattered clouds.2 mph66%30.01 "HgN/A
1:35 PM79 °FBroken clouds.2 mph70%30.04 "HgN/A
1:05 PM75 °FBroken clouds.No wind74%30.04 "HgN/A
12:35 PM75 °FLight rain. Broken clouds.3 mph78%30.07 "Hg4 mi
12:05 PM73 °FRain. Broken clouds.10 mph74%30.07 "Hg4 mi
11:35 AM77 °FRain. Broken clouds.13 mph69%30.07 "Hg4 mi
11:05 AM77 °FBroken clouds.7 mph79%30.07 "Hg5 mi
10:35 AM77 °FBroken clouds.5 mph79%30.07 "Hg5 mi
10:05 AM79 °FPartly sunny.No wind74%30.07 "Hg5 mi
9:35 AM75 °FPartly sunny.5 mph78%30.07 "Hg5 mi
8:35 AM72 °FPartly sunny.5 mph88%30.07 "Hg5 mi
8:05 AM70 °FFog.N/A88%30.04 "HgN/A
7:35 AM70 °FBroken clouds.3 mph88%30.04 "Hg5 mi
7:05 AM68 °FBroken clouds.3 mph94%30.04 "Hg4 mi
6:35 AM68 °FBroken clouds.5 mph94%30.04 "Hg5 mi
6:05 AM68 °FRain. Partly cloudy.3 mph94%30.04 "Hg5 mi
5:35 AM68 °FLight rain. Passing clouds.3 mph94%30.04 "Hg4 mi
4:35 AM68 °FLight rain. Partly cloudy.3 mph94%30.01 "Hg4 mi
3:35 AM68 °FLight rain. Partly cloudy.3 mph94%30.01 "Hg4 mi
2:35 AM68 °FThunderstorms. Passing clouds.9 mph100%30.01 "Hg4 mi
1:35 AM73 °FThunderstorms. Passing clouds.6 mph83%29.95 "Hg4 mi
Weather by CustomWeather, © 2016

See weather overviewHow to use our weather pages